Queretaro Airport,

9:03 AM CDT on May 25, 2017 (GMT -0500)
Queretaro Airport

Weather History for MMQT - March, 2013

Change the Weather History Date:

Wednesday, March 6, 2013

  Actual Average Record
Temperature  
Mean Temperature 64 °F -  
Max Temperature 81 °F 78 °F 84 °F (1999)
Min Temperature 47 °F 50 °F 33 °F (2007)
Degree Days  
Heating Degree Days 1    
Growing Degree Days 14 (Base 50)    
Moisture  
Dew Point 40 °F    
Average Humidity 49    
Maximum Humidity 94    
Minimum Humidity 7    
Precipitation  
Precipitation 0.00 in - - ()
Sea Level Pressure  
Sea Level Pressure 30.26 in    
Wind  
Wind Speed 11 mph ()    
Max Wind Speed 21 mph    
Max Gust Speed -    
Visibility 7.9 miles    
Events      
Averages and records for this station are not official NWS values.
T = Trace of Precipitation, MM = Missing Value Source: Averaged Metar Reports

Daily Weather History Graph

Daily Weather History Graph

Search for Another Location

Airport or City:

Trip Planner

Search our weather history database for the weather conditions in past years. The results will help you decide how hot, cold, wet, or windy it might be!

Date:

Astronomy

Mar. 06, 2013 Rise Set
Actual Time 6:56 AM CST 6:47 PM CST
Civil Twilight 6:34 AM CST 7:09 PM CST
Nautical Twilight 6:08 AM CST 7:35 PM CST
Astronomical Twilight 5:43 AM CST 8:00 PM CST
Moon 2:36 AM CST (3/6) 2:01 PM CST (3/6)
Length of Visible Light 12h 35m
Length of Day
11h 50m
Waning Crescent, 29% of the Moon is Illuminated
Mar 6
Waning Crescent
Mar 11
New
Mar 19
First Quarter
Mar 27
Full
Apr 2
Last Quarter

Hourly Weather History & Observations

Time (CST) Temp. Windchill Dew Point Humidity Pressure Visibility Wind Dir Wind Speed Gust Speed Precip Events Conditions
12:45 AM 53.6 °F - 41.0 °F 62% 30.40 in 7.0 mi East 20.7 mph - N/A   Clear
1:45 AM 53.6 °F - 41.0 °F 62% 30.40 in 7.0 mi East 19.6 mph - N/A   Clear
2:45 AM 51.8 °F - 42.8 °F 71% 30.40 in 9.0 mi East 13.8 mph - N/A   Clear
3:45 AM 50.0 °F - 41.0 °F 71% 30.40 in 9.0 mi East 9.2 mph - N/A   Clear
4:45 AM 48.2 °F - 33.8 °F 58% 30.40 in 9.0 mi ENE 5.8 mph - N/A   Clear
5:45 AM 48.2 °F - 33.8 °F 58% 30.40 in 9.0 mi ENE 8.1 mph - N/A   Clear
6:45 AM 44.6 °F 42.2 °F 30.2 °F 57% 30.38 in 6.0 mi ESE 4.6 mph - N/A   Clear
7:45 AM 44.6 °F 41.4 °F 39.2 °F 81% 30.39 in 4.0 mi ESE 5.8 mph - N/A   Clear
8:40 AM 51.8 °F - 42.8 °F 71% 30.40 in 4.0 mi East 13.8 mph - N/A   Clear
8:45 AM 52 °F - 42 °F 58% 30.13 in 16 mi East 6.7 mph - -  
9:45 AM 57.2 °F - 42.8 °F 59% 30.41 in 5.0 mi East 15.0 mph - N/A   Clear
10:45 AM 60.8 °F - 46.4 °F 59% 30.41 in 5.0 mi ENE 12.7 mph - N/A   Clear
11:40 AM 69 °F - 40 °F 24% 30.08 in 16 mi East 6.7 mph - -   Scattered Clouds
11:45 AM 66.2 °F - 42.8 °F 43% 30.41 in 5.0 mi East 10.4 mph - N/A   Clear
12:45 PM 71.6 °F - 37.4 °F 29% 30.38 in 5.0 mi Calm Calm - N/A   Scattered Clouds
1:45 PM 77.0 °F - 32.0 °F 19% 30.33 in 5.0 mi WSW 8.1 mph - N/A   Clear
2:45 PM 75.2 °F - 35.6 °F 24% 30.27 in 7.0 mi NNE 11.5 mph - N/A   Clear
2:52 PM 81 °F - 29 °F 7% 29.88 in 12 mi West 4.5 mph - -   Scattered Clouds
3:45 PM 78.8 °F - 77.0 °F 94% 30.23 in 7.0 mi ENE 11.5 mph - N/A   Scattered Clouds
4:45 PM 77.0 °F - 37.4 °F 24% 30.23 in 7.0 mi ESE 17.3 mph - N/A   Scattered Clouds
5:45 PM 71.6 °F - 39.2 °F 31% 30.24 in 7.0 mi ENE 20.7 mph - N/A   Mostly Cloudy
5:50 PM 79 °F - 29 °F 8% 29.76 in 12 mi WNW 2.2 mph - -   Partly Cloudy
6:45 PM 68.0 °F - 41.0 °F 37% 30.26 in 6.0 mi ENE 19.6 mph - N/A   Mostly Cloudy
7:45 PM 62.6 °F - 42.8 °F 48% 30.26 in 7.0 mi ENE 11.5 mph - N/A   Mostly Cloudy
8:45 PM 59.0 °F - 41.0 °F 51% 30.32 in 7.0 mi ENE 13.8 mph - N/A   Mostly Cloudy
8:55 PM 64 °F - 37 °F 25% 29.77 in 12 mi SE 13.4 mph - -   Partly Cloudy
9:45 PM 57.2 °F - 42.8 °F 59% 30.34 in 7.0 mi East 13.8 mph - N/A   Mostly Cloudy
10:45 PM 51.8 °F - 41.0 °F 67% 30.32 in 7.0 mi East 11.5 mph - N/A   Mostly Cloudy
11:45 PM 50.0 °F - 42.8 °F 76% 0.30 in 7.0 mi East 9.2 mph - N/A   Mostly Cloudy
11:53 PM 56 °F - 39 °F 41% 29.83 in 12 mi SE 8.9 mph - -   Partly Cloudy